Year,Month,Day,Hour,Minute,Value (Times are PST for temperature in C)
2018,07,25,00,00,19.40
2018,07,25,00,01,19.30
2018,07,25,00,02,19.30
2018,07,25,00,03,19.30
2018,07,25,00,04,19.30
2018,07,25,00,05,19.20
2018,07,25,00,06,19.20
2018,07,25,00,07,19.20
2018,07,25,00,08,19.10
2018,07,25,00,09,19.10
2018,07,25,00,10,19.10
2018,07,25,00,11,19.10
2018,07,25,00,12,19.10
2018,07,25,00,13,19.00
2018,07,25,00,14,19.00
2018,07,25,00,15,19.00
2018,07,25,00,16,18.90
2018,07,25,00,17,18.90
2018,07,25,00,18,18.90
2018,07,25,00,19,18.90
2018,07,25,00,20,18.90
2018,07,25,00,21,18.90
2018,07,25,00,22,18.90
2018,07,25,00,23,18.90
2018,07,25,00,24,18.90
2018,07,25,00,25,18.90
2018,07,25,00,26,18.90
2018,07,25,00,27,18.90
2018,07,25,00,28,18.90
2018,07,25,00,29,18.90
2018,07,25,00,30,18.80
2018,07,25,00,31,18.80
2018,07,25,00,32,18.80
2018,07,25,00,33,18.80
2018,07,25,00,34,18.80
2018,07,25,00,35,18.80
2018,07,25,00,36,18.70
2018,07,25,00,37,18.70
2018,07,25,00,38,18.70
2018,07,25,00,39,18.70
2018,07,25,00,40,18.70
2018,07,25,00,41,18.70
2018,07,25,00,42,18.70
2018,07,25,00,43,18.70
2018,07,25,00,44,18.70
2018,07,25,00,45,18.60
2018,07,25,00,46,18.60
2018,07,25,00,47,18.60
2018,07,25,00,48,18.60
2018,07,25,00,49,18.50
2018,07,25,00,50,18.50
2018,07,25,00,51,18.40
2018,07,25,00,52,18.40
2018,07,25,00,53,18.40
2018,07,25,00,54,18.40
2018,07,25,00,55,18.40
2018,07,25,00,56,18.40
2018,07,25,00,57,18.40
2018,07,25,00,58,18.40
2018,07,25,00,59,18.40
2018,07,25,01,00,18.40
2018,07,25,01,01,18.40
2018,07,25,01,02,18.40
2018,07,25,01,03,18.40
2018,07,25,01,04,18.40
2018,07,25,01,05,18.30
2018,07,25,01,06,18.30
2018,07,25,01,07,18.30
2018,07,25,01,08,18.30
2018,07,25,01,09,18.30
2018,07,25,01,10,18.30
2018,07,25,01,11,18.20
2018,07,25,01,12,18.20
2018,07,25,01,13,18.10
2018,07,25,01,14,18.10
2018,07,25,01,15,18.00
2018,07,25,01,16,18.00
2018,07,25,01,17,18.00
2018,07,25,01,18,17.90
2018,07,25,01,19,17.90
2018,07,25,01,20,17.90
2018,07,25,01,21,17.90
2018,07,25,01,22,17.80
2018,07,25,01,23,17.80
2018,07,25,01,24,17.80
2018,07,25,01,25,17.80
2018,07,25,01,26,17.80
2018,07,25,01,27,17.90
2018,07,25,01,28,17.90
2018,07,25,01,29,17.90
2018,07,25,01,30,17.90
2018,07,25,01,31,17.90
2018,07,25,01,32,17.90
2018,07,25,01,33,17.90
2018,07,25,01,34,17.90
2018,07,25,01,35,17.90
2018,07,25,01,36,17.90
2018,07,25,01,37,17.90
2018,07,25,01,38,17.90
2018,07,25,01,39,17.90
2018,07,25,01,40,17.90
2018,07,25,01,41,17.90
2018,07,25,01,42,17.90
2018,07,25,01,43,17.90
2018,07,25,01,44,17.90
2018,07,25,01,45,17.80
2018,07,25,01,46,17.80
2018,07,25,01,47,17.80
2018,07,25,01,48,17.80
2018,07,25,01,49,17.80
2018,07,25,01,50,17.80
2018,07,25,01,51,17.80
2018,07,25,01,52,17.80
2018,07,25,01,53,17.80
2018,07,25,01,54,17.80
2018,07,25,01,55,17.80
2018,07,25,01,56,17.80
2018,07,25,01,57,17.80
2018,07,25,01,58,17.80
2018,07,25,01,59,17.80
2018,07,25,02,00,17.80
2018,07,25,02,01,17.80
2018,07,25,02,02,17.80
2018,07,25,02,03,17.80
2018,07,25,02,04,17.80
2018,07,25,02,05,17.80
2018,07,25,02,06,17.80
2018,07,25,02,07,17.80
2018,07,25,02,08,17.80
2018,07,25,02,09,17.80
2018,07,25,02,10,17.80
2018,07,25,02,11,17.80
2018,07,25,02,12,17.80
2018,07,25,02,13,17.80
2018,07,25,02,14,17.80
2018,07,25,02,15,17.80
2018,07,25,02,16,17.80
2018,07,25,02,17,17.80
2018,07,25,02,18,17.80
2018,07,25,02,19,17.80
2018,07,25,02,20,17.80
2018,07,25,02,21,17.80
2018,07,25,02,22,17.80
2018,07,25,02,23,17.80
2018,07,25,02,24,17.80
2018,07,25,02,25,17.80
2018,07,25,02,26,17.70
2018,07,25,02,27,17.70
2018,07,25,02,28,17.70
2018,07,25,02,29,17.70
2018,07,25,02,30,17.70
2018,07,25,02,31,17.70
2018,07,25,02,32,17.60
2018,07,25,02,33,17.60
2018,07,25,02,34,17.60
2018,07,25,02,35,17.60
2018,07,25,02,36,17.50
2018,07,25,02,37,17.50
2018,07,25,02,38,17.40
2018,07,25,02,39,17.40
2018,07,25,02,40,17.40
2018,07,25,02,41,17.40
2018,07,25,02,42,17.40
2018,07,25,02,43,17.30
2018,07,25,02,44,17.30
2018,07,25,02,45,17.30
2018,07,25,02,46,17.30
2018,07,25,02,47,17.30
2018,07,25,02,48,17.30
2018,07,25,02,49,17.20
2018,07,25,02,50,17.20
2018,07,25,02,51,17.20
2018,07,25,02,52,17.20
2018,07,25,02,53,17.20
2018,07,25,02,54,17.10
2018,07,25,02,55,17.10
2018,07,25,02,56,17.10
2018,07,25,02,57,17.10
2018,07,25,02,58,17.10
2018,07,25,02,59,17.10
2018,07,25,03,00,17.10
2018,07,25,03,01,17.10
2018,07,25,03,02,17.10
2018,07,25,03,03,17.10
2018,07,25,03,04,17.10
2018,07,25,03,05,17.00
2018,07,25,03,06,17.00
2018,07,25,03,07,17.00
2018,07,25,03,08,17.00
2018,07,25,03,09,17.00
2018,07,25,03,10,16.90
2018,07,25,03,11,16.90
2018,07,25,03,12,16.90
2018,07,25,03,13,16.90
2018,07,25,03,14,16.90
2018,07,25,03,15,16.80
2018,07,25,03,16,16.80
2018,07,25,03,17,16.80
2018,07,25,03,18,16.80
2018,07,25,03,19,16.70
2018,07,25,03,20,16.70
2018,07,25,03,21,16.70
2018,07,25,03,22,16.60
2018,07,25,03,23,16.60
2018,07,25,03,24,16.50
2018,07,25,03,25,16.40
2018,07,25,03,26,16.30
2018,07,25,03,27,16.20
2018,07,25,03,28,16.10
2018,07,25,03,29,16.00
2018,07,25,03,30,15.90
2018,07,25,03,31,15.80
2018,07,25,03,32,15.80
2018,07,25,03,33,15.70
2018,07,25,03,34,15.70
2018,07,25,03,35,15.60
2018,07,25,03,36,15.60
2018,07,25,03,37,15.60
2018,07,25,03,38,15.50
2018,07,25,03,39,15.50
2018,07,25,03,40,15.50
2018,07,25,03,41,15.40
2018,07,25,03,42,15.40
2018,07,25,03,43,15.40
2018,07,25,03,44,15.40
2018,07,25,03,45,15.40
2018,07,25,03,46,15.40
2018,07,25,03,47,15.40
2018,07,25,03,48,15.40
2018,07,25,03,49,15.40
2018,07,25,03,50,15.40
2018,07,25,03,51,15.40
2018,07,25,03,52,15.40
2018,07,25,03,53,15.40
2018,07,25,03,54,15.40
2018,07,25,03,55,15.40
2018,07,25,03,56,15.40
2018,07,25,03,57,15.40
2018,07,25,03,58,15.40
2018,07,25,03,59,15.40
2018,07,25,04,00,15.50
2018,07,25,04,01,15.60
2018,07,25,04,02,15.70
2018,07,25,04,03,15.80
2018,07,25,04,04,15.90
2018,07,25,04,05,16.00
2018,07,25,04,06,16.10
2018,07,25,04,07,16.20
2018,07,25,04,08,16.30
2018,07,25,04,09,16.30
2018,07,25,04,10,16.30
2018,07,25,04,11,16.30
2018,07,25,04,12,16.20
2018,07,25,04,13,16.20
2018,07,25,04,14,16.20
2018,07,25,04,15,16.20
2018,07,25,04,16,16.20
2018,07,25,04,17,16.20
2018,07,25,04,18,16.30
2018,07,25,04,19,16.30
2018,07,25,04,20,16.40
2018,07,25,04,21,16.40
2018,07,25,04,22,16.50
2018,07,25,04,23,16.50
2018,07,25,04,24,16.60
2018,07,25,04,25,16.60
2018,07,25,04,26,16.60
2018,07,25,04,27,16.70
2018,07,25,04,28,16.70
2018,07,25,04,29,16.70
2018,07,25,04,30,16.70
2018,07,25,04,31,16.70
2018,07,25,04,32,16.70
2018,07,25,04,33,16.70
2018,07,25,04,34,16.70
2018,07,25,04,35,16.60
2018,07,25,04,36,16.50
2018,07,25,04,37,16.50
2018,07,25,04,38,16.40
2018,07,25,04,39,16.30
2018,07,25,04,40,16.30
2018,07,25,04,41,16.20
2018,07,25,04,42,16.20
2018,07,25,04,43,16.20
2018,07,25,04,44,16.20
2018,07,25,04,45,16.20
2018,07,25,04,46,16.20
2018,07,25,04,47,16.20
2018,07,25,04,48,16.20
2018,07,25,04,49,16.10
2018,07,25,04,50,16.00
2018,07,25,04,51,15.90
2018,07,25,04,52,15.80
2018,07,25,04,53,15.70
2018,07,25,04,54,15.60
2018,07,25,04,55,15.60
2018,07,25,04,56,15.50
2018,07,25,04,57,15.40
2018,07,25,04,58,15.40
2018,07,25,04,59,15.30
2018,07,25,05,00,15.30
2018,07,25,05,01,15.30
2018,07,25,05,02,15.30
2018,07,25,05,03,15.40
2018,07,25,05,04,15.50
2018,07,25,05,05,15.60
2018,07,25,05,06,15.60
2018,07,25,05,07,15.70
2018,07,25,05,08,15.70
2018,07,25,05,09,15.70
2018,07,25,05,10,15.70
2018,07,25,05,11,15.70
2018,07,25,05,12,15.70
2018,07,25,05,13,15.70
2018,07,25,05,14,15.60
2018,07,25,05,15,15.60
2018,07,25,05,16,15.50
2018,07,25,05,17,15.50
2018,07,25,05,18,15.50
2018,07,25,05,19,15.40
2018,07,25,05,20,15.40
2018,07,25,05,21,15.40
2018,07,25,05,22,15.40
2018,07,25,05,23,15.40
2018,07,25,05,24,15.50
2018,07,25,05,25,15.50
2018,07,25,05,26,15.60
2018,07,25,05,27,15.60
2018,07,25,05,28,15.60
2018,07,25,05,29,15.60
2018,07,25,05,30,15.60
2018,07,25,05,31,15.50
2018,07,25,05,32,15.50
2018,07,25,05,33,15.40
2018,07,25,05,34,15.40
2018,07,25,05,35,15.30
2018,07,25,05,36,15.20
2018,07,25,05,37,15.20
2018,07,25,05,38,15.10
2018,07,25,05,39,15.10
2018,07,25,05,40,15.10
2018,07,25,05,41,15.00
2018,07,25,05,42,15.00
2018,07,25,05,43,15.00
2018,07,25,05,44,14.90
2018,07,25,05,45,14.90
2018,07,25,05,46,14.90
2018,07,25,05,47,14.90
2018,07,25,05,48,14.90
2018,07,25,05,49,14.90
2018,07,25,05,50,14.80
2018,07,25,05,51,14.90
2018,07,25,05,52,15.00
2018,07,25,05,53,15.10
2018,07,25,05,54,15.20
2018,07,25,05,55,15.30
2018,07,25,05,56,15.30
2018,07,25,05,57,15.30
2018,07,25,05,58,15.30
2018,07,25,05,59,15.30
2018,07,25,06,00,15.30
2018,07,25,06,01,15.30
2018,07,25,06,02,15.30
2018,07,25,06,03,15.20
2018,07,25,06,04,15.20
2018,07,25,06,05,15.20
2018,07,25,06,06,15.20
2018,07,25,06,07,15.20
2018,07,25,06,08,15.20
2018,07,25,06,09,15.20
2018,07,25,06,10,15.20
2018,07,25,06,11,15.20
2018,07,25,06,12,15.30
2018,07,25,06,13,15.30
2018,07,25,06,14,15.30
2018,07,25,06,15,15.30
2018,07,25,06,16,15.30
2018,07,25,06,17,15.40
2018,07,25,06,18,15.40
2018,07,25,06,19,15.40
2018,07,25,06,20,15.50
2018,07,25,06,21,15.50
2018,07,25,06,22,15.60
2018,07,25,06,23,15.60
2018,07,25,06,24,15.70
2018,07,25,06,25,15.70
2018,07,25,06,26,15.70
2018,07,25,06,27,15.70
2018,07,25,06,28,15.70
2018,07,25,06,29,15.70
2018,07,25,06,30,15.70
2018,07,25,06,31,15.80
2018,07,25,06,32,15.80
2018,07,25,06,33,15.90
2018,07,25,06,34,15.90
2018,07,25,06,35,16.00
2018,07,25,06,36,16.00
2018,07,25,06,37,16.10
2018,07,25,06,38,16.10
2018,07,25,06,39,16.20
2018,07,25,06,40,16.20
2018,07,25,06,41,16.30
2018,07,25,06,42,16.40
2018,07,25,06,43,16.40
2018,07,25,06,44,16.50
2018,07,25,06,45,16.60
2018,07,25,06,46,16.70
2018,07,25,06,47,16.80
2018,07,25,06,48,16.80
2018,07,25,06,49,16.90
2018,07,25,06,50,17.00
2018,07,25,06,51,17.10
2018,07,25,06,52,17.10
2018,07,25,06,53,17.20
2018,07,25,06,54,17.20
2018,07,25,06,55,17.30
2018,07,25,06,56,17.30
2018,07,25,06,57,17.30
2018,07,25,06,58,17.40
2018,07,25,06,59,17.50
2018,07,25,07,00,17.70
2018,07,25,07,01,17.90
2018,07,25,07,02,18.10
2018,07,25,07,03,18.20
2018,07,25,07,04,18.30
2018,07,25,07,05,18.40
2018,07,25,07,06,18.50
2018,07,25,07,07,18.50
2018,07,25,07,08,18.50
2018,07,25,07,09,18.40
2018,07,25,07,10,18.30
2018,07,25,07,11,18.20
2018,07,25,07,12,18.00
2018,07,25,07,13,17.90
2018,07,25,07,14,17.80
2018,07,25,07,15,17.70
2018,07,25,07,16,17.70
2018,07,25,07,17,17.70
2018,07,25,07,18,17.80
2018,07,25,07,19,17.80
2018,07,25,07,20,17.90
2018,07,25,07,21,18.00
2018,07,25,07,22,18.10
2018,07,25,07,23,18.20
2018,07,25,07,24,18.30
2018,07,25,07,25,18.40
2018,07,25,07,26,18.50
2018,07,25,07,27,18.50
2018,07,25,07,28,18.60
2018,07,25,07,29,18.60
2018,07,25,07,30,18.80
2018,07,25,07,31,18.90
2018,07,25,07,32,19.00
2018,07,25,07,33,19.10
2018,07,25,07,34,19.20
2018,07,25,07,35,19.20
2018,07,25,07,36,19.30
2018,07,25,07,37,19.30
2018,07,25,07,38,19.40
2018,07,25,07,39,19.40
2018,07,25,07,40,19.40
2018,07,25,07,41,19.50
2018,07,25,07,42,19.60
2018,07,25,07,43,19.70
2018,07,25,07,44,19.80
2018,07,25,07,45,19.90
2018,07,25,07,46,19.90
2018,07,25,07,47,19.90
2018,07,25,07,48,20.00
2018,07,25,07,49,20.00
2018,07,25,07,50,20.00
2018,07,25,07,51,20.00
2018,07,25,07,52,20.00
2018,07,25,07,53,19.90
2018,07,25,07,54,19.90
2018,07,25,07,55,20.00
2018,07,25,07,56,20.00
2018,07,25,07,57,19.90
2018,07,25,07,58,19.80
2018,07,25,07,59,19.80
2018,07,25,08,00,19.70
2018,07,25,08,01,19.70
2018,07,25,08,02,19.60
2018,07,25,08,03,19.50
2018,07,25,08,04,19.40
2018,07,25,08,05,19.30
2018,07,25,08,06,19.20
2018,07,25,08,07,19.20
2018,07,25,08,08,19.20
2018,07,25,08,09,19.20
2018,07,25,08,10,19.20
2018,07,25,08,11,19.20
2018,07,25,08,12,19.10
2018,07,25,08,13,19.00
2018,07,25,08,14,19.00
2018,07,25,08,15,19.00
2018,07,25,08,16,19.00
2018,07,25,08,17,19.00
2018,07,25,08,18,19.00
2018,07,25,08,19,19.10
2018,07,25,08,20,19.20
2018,07,25,08,21,19.30
2018,07,25,08,22,19.40
2018,07,25,08,23,19.50
2018,07,25,08,24,19.60
2018,07,25,08,25,19.70
2018,07,25,08,26,19.80
2018,07,25,08,27,19.90
2018,07,25,08,28,20.00
2018,07,25,08,29,20.10
2018,07,25,08,30,20.10
2018,07,25,08,31,20.20
2018,07,25,08,32,20.40
2018,07,25,08,33,20.50
2018,07,25,08,34,20.60
2018,07,25,08,35,20.60
2018,07,25,08,36,20.60
2018,07,25,08,37,20.60
2018,07,25,08,38,20.60
2018,07,25,08,39,20.80
2018,07,25,08,40,20.90
2018,07,25,08,41,21.00
2018,07,25,08,42,21.10
2018,07,25,08,43,21.20
2018,07,25,08,44,21.40
2018,07,25,08,45,21.60
2018,07,25,08,46,21.70
2018,07,25,08,47,21.90
2018,07,25,08,48,22.20
2018,07,25,08,49,22.30
2018,07,25,08,50,22.40
2018,07,25,08,51,22.50
2018,07,25,08,52,22.60
2018,07,25,08,53,22.60
2018,07,25,08,54,22.60
2018,07,25,08,55,22.60
2018,07,25,08,56,22.50
2018,07,25,08,57,22.60
2018,07,25,08,58,22.60
2018,07,25,08,59,22.60
2018,07,25,09,00,22.70
2018,07,25,09,01,22.70
2018,07,25,09,02,22.80
2018,07,25,09,03,22.90
2018,07,25,09,04,23.00
2018,07,25,09,05,23.10
2018,07,25,09,06,23.20
2018,07,25,09,07,23.40
2018,07,25,09,08,23.60
2018,07,25,09,09,23.70
2018,07,25,09,10,23.80
2018,07,25,09,11,23.90
2018,07,25,09,12,24.10
2018,07,25,09,13,24.20
2018,07,25,09,14,24.40
2018,07,25,09,15,24.50
2018,07,25,09,16,24.60
2018,07,25,09,17,24.70
2018,07,25,09,18,24.70
2018,07,25,09,19,24.70
2018,07,25,09,20,24.60
2018,07,25,09,21,24.60
2018,07,25,09,22,24.60
2018,07,25,09,23,24.60
2018,07,25,09,24,24.50
2018,07,25,09,25,24.60
2018,07,25,09,26,24.60
2018,07,25,09,27,24.70
2018,07,25,09,28,24.70
2018,07,25,09,29,24.80
2018,07,25,09,30,24.80
2018,07,25,09,31,24.80
2018,07,25,09,32,25.00
2018,07,25,09,33,25.20
2018,07,25,09,34,25.40
2018,07,25,09,35,25.50
2018,07,25,09,36,25.50
2018,07,25,09,37,25.40
2018,07,25,09,38,25.30
2018,07,25,09,39,25.10
2018,07,25,09,40,25.10
2018,07,25,09,41,25.00
2018,07,25,09,42,25.00
2018,07,25,09,43,25.10
2018,07,25,09,44,25.10
2018,07,25,09,45,25.20
2018,07,25,09,46,25.20
2018,07,25,09,47,25.30
2018,07,25,09,48,25.30
2018,07,25,09,49,25.30
2018,07,25,09,50,25.40
2018,07,25,09,51,25.40
2018,07,25,09,52,25.50
2018,07,25,09,53,25.50
2018,07,25,09,54,25.60
2018,07,25,09,55,25.80
2018,07,25,09,56,25.90
2018,07,25,09,57,26.00
2018,07,25,09,58,26.20
2018,07,25,09,59,26.40
2018,07,25,10,00,26.40
2018,07,25,10,01,26.30
2018,07,25,10,02,26.20
2018,07,25,10,03,26.10
2018,07,25,10,04,25.90
2018,07,25,10,05,25.80
2018,07,25,10,06,25.80
2018,07,25,10,07,25.80
2018,07,25,10,08,25.80
2018,07,25,10,09,25.80
2018,07,25,10,10,25.90
2018,07,25,10,11,26.00
2018,07,25,10,12,26.00
2018,07,25,10,13,26.10
2018,07,25,10,14,26.10
2018,07,25,10,15,26.20
2018,07,25,10,16,26.30
2018,07,25,10,17,26.40
2018,07,25,10,18,26.40
2018,07,25,10,19,26.40
2018,07,25,10,20,26.40
2018,07,25,10,21,26.40
2018,07,25,10,22,26.40
2018,07,25,10,23,26.50
2018,07,25,10,24,26.50
2018,07,25,10,25,26.50
2018,07,25,10,26,26.40
2018,07,25,10,27,26.40
2018,07,25,10,28,26.40
2018,07,25,10,29,26.40
2018,07,25,10,30,26.40
2018,07,25,10,31,26.50
2018,07,25,10,32,26.60
2018,07,25,10,33,26.60
2018,07,25,10,34,26.60
2018,07,25,10,35,26.70
2018,07,25,10,36,26.80
2018,07,25,10,37,26.90
2018,07,25,10,38,26.90
2018,07,25,10,39,26.90
2018,07,25,10,40,26.80
2018,07,25,10,41,26.90
2018,07,25,10,42,26.90
2018,07,25,10,43,27.00
2018,07,25,10,44,27.10
2018,07,25,10,45,27.00
2018,07,25,10,46,26.90
2018,07,25,10,47,26.60
2018,07,25,10,48,26.50
2018,07,25,10,49,26.30
2018,07,25,10,50,26.30
2018,07,25,10,51,26.30
2018,07,25,10,52,26.30
2018,07,25,10,53,26.30
2018,07,25,10,54,26.30
2018,07,25,10,55,26.30
2018,07,25,10,56,26.40
2018,07,25,10,57,26.50
2018,07,25,10,58,26.70
2018,07,25,10,59,27.00
2018,07,25,11,00,27.20
2018,07,25,11,01,27.30
2018,07,25,11,02,27.30
2018,07,25,11,03,27.20
2018,07,25,11,04,27.00
2018,07,25,11,05,26.90
2018,07,25,11,06,26.90
2018,07,25,11,07,27.00
2018,07,25,11,08,27.00
2018,07,25,11,09,27.00
2018,07,25,11,10,26.90
2018,07,25,11,11,26.80
2018,07,25,11,12,26.80
2018,07,25,11,13,26.80
2018,07,25,11,14,26.80
2018,07,25,11,15,26.80
2018,07,25,11,16,26.80
2018,07,25,11,17,26.80
2018,07,25,11,18,26.90
2018,07,25,11,19,26.90
2018,07,25,11,20,26.90
2018,07,25,11,21,26.90
2018,07,25,11,22,26.90
2018,07,25,11,23,26.90
2018,07,25,11,24,26.90
2018,07,25,11,25,27.00
2018,07,25,11,26,27.10
2018,07,25,11,27,27.10
2018,07,25,11,28,27.10
2018,07,25,11,29,27.00
2018,07,25,11,30,27.00
2018,07,25,11,31,27.10
2018,07,25,11,32,27.20
2018,07,25,11,33,27.30
2018,07,25,11,34,27.30
2018,07,25,11,35,27.30
2018,07,25,11,36,27.40
2018,07,25,11,37,27.40
2018,07,25,11,38,27.30
2018,07,25,11,39,27.20
2018,07,25,11,40,27.10
2018,07,25,11,41,27.20
2018,07,25,11,42,27.20
2018,07,25,11,43,27.20
2018,07,25,11,44,27.20
2018,07,25,11,45,27.20
2018,07,25,11,46,27.00
2018,07,25,11,47,26.90
2018,07,25,11,48,26.90
2018,07,25,11,49,26.80
2018,07,25,11,50,26.90
2018,07,25,11,51,27.00
2018,07,25,11,52,27.10
2018,07,25,11,53,27.20
2018,07,25,11,54,27.20
2018,07,25,11,55,27.30
2018,07,25,11,56,27.30
2018,07,25,11,57,27.20
2018,07,25,11,58,27.10
2018,07,25,11,59,27.10
2018,07,25,12,00,27.10
2018,07,25,12,01,27.00
2018,07,25,12,02,26.90
2018,07,25,12,03,26.90
2018,07,25,12,04,26.80
2018,07,25,12,05,26.80
2018,07,25,12,06,26.80
2018,07,25,12,07,26.70
2018,07,25,12,08,26.70
2018,07,25,12,09,26.70
2018,07,25,12,10,26.50
2018,07,25,12,11,26.40
2018,07,25,12,12,26.40
2018,07,25,12,13,26.50
2018,07,25,12,14,26.70
2018,07,25,12,15,26.80
2018,07,25,12,16,26.80
2018,07,25,12,17,26.80
2018,07,25,12,18,26.80
2018,07,25,12,19,26.80
2018,07,25,12,20,26.80
2018,07,25,12,21,26.80
2018,07,25,12,22,26.90
2018,07,25,12,23,26.90
2018,07,25,12,24,26.80
2018,07,25,12,25,26.70
2018,07,25,12,26,26.80
2018,07,25,12,27,26.80
2018,07,25,12,28,26.90
2018,07,25,12,29,27.00
2018,07,25,12,30,26.90
2018,07,25,12,31,26.80
2018,07,25,12,32,26.80
2018,07,25,12,33,26.70
2018,07,25,12,34,26.60
2018,07,25,12,35,26.60
2018,07,25,12,36,26.50
2018,07,25,12,37,26.50
2018,07,25,12,38,26.60
2018,07,25,12,39,26.70
2018,07,25,12,40,26.80
2018,07,25,12,41,26.80
2018,07,25,12,42,26.90
2018,07,25,12,43,26.90
2018,07,25,12,44,26.90
2018,07,25,12,45,26.90
2018,07,25,12,46,27.00
2018,07,25,12,47,27.10
2018,07,25,12,48,27.20
2018,07,25,12,49,27.30
2018,07,25,12,50,27.30
2018,07,25,12,51,27.20
2018,07,25,12,52,27.10
2018,07,25,12,53,27.00
2018,07,25,12,54,27.20
2018,07,25,12,55,27.40
2018,07,25,12,56,27.50
2018,07,25,12,57,27.60
2018,07,25,12,58,27.50
2018,07,25,12,59,27.40
2018,07,25,13,00,27.30
2018,07,25,13,01,27.20
2018,07,25,13,02,27.30
2018,07,25,13,03,27.30
2018,07,25,13,04,27.40
2018,07,25,13,05,27.30
2018,07,25,13,06,27.20
2018,07,25,13,07,27.10
2018,07,25,13,08,27.20
2018,07,25,13,09,27.20
2018,07,25,13,10,27.10
2018,07,25,13,11,27.10
2018,07,25,13,12,27.20
2018,07,25,13,13,27.30
2018,07,25,13,14,27.50
2018,07,25,13,15,27.70
2018,07,25,13,16,27.80
2018,07,25,13,17,27.90
2018,07,25,13,18,27.80
2018,07,25,13,19,27.70
2018,07,25,13,20,27.70
2018,07,25,13,21,27.70
2018,07,25,13,22,27.80
2018,07,25,13,23,27.80
2018,07,25,13,24,27.80
2018,07,25,13,25,27.70
2018,07,25,13,26,27.70
2018,07,25,13,27,27.90
2018,07,25,13,28,28.00
2018,07,25,13,29,28.10
2018,07,25,13,30,28.10
2018,07,25,13,31,28.00
2018,07,25,13,32,28.00
2018,07,25,13,33,28.10
2018,07,25,13,34,28.20
2018,07,25,13,35,28.10
2018,07,25,13,36,28.00
2018,07,25,13,37,27.90
2018,07,25,13,38,27.90
2018,07,25,13,39,27.90
2018,07,25,13,40,27.80
2018,07,25,13,41,27.80
2018,07,25,13,42,27.80
2018,07,25,13,43,27.80
2018,07,25,13,44,27.90
2018,07,25,13,45,28.00
2018,07,25,13,46,28.20
2018,07,25,13,47,28.30
2018,07,25,13,48,28.30
2018,07,25,13,49,28.30
2018,07,25,13,50,28.20
2018,07,25,13,51,28.10
2018,07,25,13,52,27.90
2018,07,25,13,53,27.80
2018,07,25,13,54,27.70
2018,07,25,13,55,27.70
2018,07,25,13,56,27.60
2018,07,25,13,57,27.60
2018,07,25,13,58,27.70
2018,07,25,13,59,27.80
2018,07,25,14,00,27.90
2018,07,25,14,01,27.90
2018,07,25,14,02,28.00
2018,07,25,14,03,28.00
2018,07,25,14,04,28.00
2018,07,25,14,05,28.00
2018,07,25,14,06,28.00
2018,07,25,14,07,28.00
2018,07,25,14,08,27.90
2018,07,25,14,09,28.00
2018,07,25,14,10,28.10
2018,07,25,14,11,28.30
2018,07,25,14,12,28.40
2018,07,25,14,13,28.50
2018,07,25,14,14,28.70
2018,07,25,14,15,28.70
2018,07,25,14,16,28.60
2018,07,25,14,17,28.70
2018,07,25,14,18,28.80
2018,07,25,14,19,28.80
2018,07,25,14,20,29.00
2018,07,25,14,21,29.10
2018,07,25,14,22,29.10
2018,07,25,14,23,29.20
2018,07,25,14,24,29.20
2018,07,25,14,25,29.20
2018,07,25,14,26,29.10
2018,07,25,14,27,29.10
2018,07,25,14,28,29.00
2018,07,25,14,29,28.80
2018,07,25,14,30,28.70
2018,07,25,14,31,28.60
2018,07,25,14,32,28.50
2018,07,25,14,33,28.50
2018,07,25,14,34,28.50
2018,07,25,14,35,28.40
2018,07,25,14,36,28.40
2018,07,25,14,37,28.40
2018,07,25,14,38,28.40
2018,07,25,14,39,28.40
2018,07,25,14,40,28.40
2018,07,25,14,41,28.50
2018,07,25,14,42,28.50
2018,07,25,14,43,28.60
2018,07,25,14,44,28.70
2018,07,25,14,45,28.70
2018,07,25,14,46,28.70
2018,07,25,14,47,28.80
2018,07,25,14,48,28.80
2018,07,25,14,49,28.90
2018,07,25,14,50,28.90
2018,07,25,14,51,29.00
2018,07,25,14,52,28.90
2018,07,25,14,53,29.00
2018,07,25,14,54,28.90
2018,07,25,14,55,28.80
2018,07,25,14,56,28.70
2018,07,25,14,57,28.70
2018,07,25,14,58,28.70
2018,07,25,14,59,28.70
2018,07,25,15,00,28.80
2018,07,25,15,01,28.90
2018,07,25,15,02,29.10
2018,07,25,15,03,29.20
2018,07,25,15,04,29.30
2018,07,25,15,05,29.30
2018,07,25,15,06,29.20
2018,07,25,15,07,29.00
2018,07,25,15,08,28.90
2018,07,25,15,09,28.90
2018,07,25,15,10,29.00
2018,07,25,15,11,29.10
2018,07,25,15,12,29.20
2018,07,25,15,13,29.20
2018,07,25,15,14,29.20
2018,07,25,15,15,29.10
2018,07,25,15,16,29.10
2018,07,25,15,17,29.20
2018,07,25,15,18,29.40
2018,07,25,15,19,29.30
2018,07,25,15,20,29.30
2018,07,25,15,21,29.30
2018,07,25,15,22,29.30
2018,07,25,15,23,29.30
2018,07,25,15,24,29.40
2018,07,25,15,25,29.40
2018,07,25,15,26,29.40
2018,07,25,15,27,29.40
2018,07,25,15,28,29.40
2018,07,25,15,29,29.50
2018,07,25,15,30,29.50
2018,07,25,15,31,29.60
2018,07,25,15,32,29.70
2018,07,25,15,33,29.60
2018,07,25,15,34,29.50
2018,07,25,15,35,29.40
2018,07,25,15,36,29.40
2018,07,25,15,37,29.40
2018,07,25,15,38,29.50
2018,07,25,15,39,29.50
2018,07,25,15,40,29.50
2018,07,25,15,41,29.50
2018,07,25,15,42,29.40
2018,07,25,15,43,29.40
2018,07,25,15,44,29.40
2018,07,25,15,45,29.50
2018,07,25,15,46,29.50
2018,07,25,15,47,29.60
2018,07,25,15,48,29.60
2018,07,25,15,49,29.60
2018,07,25,15,50,29.60
2018,07,25,15,51,29.50
2018,07,25,15,52,29.40
2018,07,25,15,53,29.30
2018,07,25,15,54,29.20
2018,07,25,15,55,29.20
2018,07,25,15,56,29.20
2018,07,25,15,57,29.20
2018,07,25,15,58,29.10
2018,07,25,15,59,29.00
2018,07,25,16,00,28.90
2018,07,25,16,01,28.80
2018,07,25,16,02,28.80
2018,07,25,16,03,28.80
2018,07,25,16,04,28.90
2018,07,25,16,05,28.90
2018,07,25,16,06,28.90
2018,07,25,16,07,28.80
2018,07,25,16,08,28.70
2018,07,25,16,09,28.70
2018,07,25,16,10,28.60
2018,07,25,16,11,28.60
2018,07,25,16,12,28.70
2018,07,25,16,13,28.80
2018,07,25,16,14,28.80
2018,07,25,16,15,28.80
2018,07,25,16,16,28.80
2018,07,25,16,17,28.80
2018,07,25,16,18,28.80
2018,07,25,16,19,28.80
2018,07,25,16,20,28.80
2018,07,25,16,21,28.80
2018,07,25,16,22,28.70
2018,07,25,16,23,28.70
2018,07,25,16,24,28.70
2018,07,25,16,25,28.70
2018,07,25,16,26,28.80
2018,07,25,16,27,28.80
2018,07,25,16,28,28.90
2018,07,25,16,29,28.90
2018,07,25,16,30,29.00
2018,07,25,16,31,29.10
2018,07,25,16,32,29.10
2018,07,25,16,33,29.10
2018,07,25,16,34,29.10
2018,07,25,16,35,29.10
2018,07,25,16,36,29.10
2018,07,25,16,37,29.10
2018,07,25,16,38,29.20
2018,07,25,16,39,29.20
2018,07,25,16,40,29.30
2018,07,25,16,41,29.30
2018,07,25,16,42,29.40
2018,07,25,16,43,29.40
2018,07,25,16,44,29.50
2018,07,25,16,45,29.50
2018,07,25,16,46,29.40
2018,07,25,16,47,29.30
2018,07,25,16,48,29.30
2018,07,25,16,49,29.20
2018,07,25,16,50,29.30
2018,07,25,16,51,29.30
2018,07,25,16,52,29.40
2018,07,25,16,53,29.40
2018,07,25,16,54,29.50
2018,07,25,16,55,29.60
2018,07,25,16,56,29.70
2018,07,25,16,57,29.70
2018,07,25,16,58,29.80
2018,07,25,16,59,29.70
2018,07,25,17,00,29.60
2018,07,25,17,01,29.60
2018,07,25,17,02,29.70
2018,07,25,17,03,29.60
2018,07,25,17,04,29.60
2018,07,25,17,05,29.60
2018,07,25,17,06,29.60
2018,07,25,17,07,29.60
2018,07,25,17,08,29.50
2018,07,25,17,09,29.30
2018,07,25,17,10,29.20
2018,07,25,17,11,29.10
2018,07,25,17,12,29.00
2018,07,25,17,13,28.90
2018,07,25,17,14,28.80
2018,07,25,17,15,28.80
2018,07,25,17,16,28.80
2018,07,25,17,17,28.80
2018,07,25,17,18,28.80
2018,07,25,17,19,28.80